[[{"header":{"parameterUnit":"m.s-1","parameterCategory":1,"la1":30.2991,"la2":30.254,"lo1":-89.0895,"lo2":-89.0444,"dy":0.0017,"dx":0.0017,"nx":28,"ny":28,"refTime":"2025-01-26T09:00:00:Z","depth":0,"parameterNumber":2,"parameterNumberName":"U-component_of_WINDS"},"data":[0,0,0,0,0,0,0,0,0,0,0,0,0,0,0,0,0,0,0,0,0,0,0,0,0,0,0,0,0,0,0,0,0,0,0,0,0,0,0,0,0,0,0,0,0,0,0,0,0,0,0,0,0,0,0,0,0,0,-2.5115,-2.5115,0,-2.5091,-2.5091,-2.509,-2.5047,-2.5046,-2.5046,-2.5045,-2.5021,-2.5021,-2.5021,0,0,0,0,0,0,0,0,0,0,0,0,0,-2.5124,-2.5124,-2.5115,-2.5115,-2.5114,-2.5091,-2.5091,-2.509,-2.5047,-2.5046,-2.5045,-2.5044,-2.5021,-2.5021,-2.5021,0,0,0,0,0,0,0,0,0,0,0,0,0,-2.5112,-2.5124,-2.5115,-2.509,-2.5088,-2.5091,-2.5091,-2.509,-2.5048,-2.5046,-2.5045,-2.5044,-2.5021,-2.5021,-2.5021,-2.5047,0,0,-2.5022,-2.5022,0,0,0,0,0,0,0,0,-2.5113,-2.5112,-2.5094,-2.5092,-2.5089,-2.5071,-2.5085,-2.5076,-2.5048,-2.5063,-2.5045,-2.5043,-2.5038,-2.5037,-2.5035,-2.5046,-2.5045,-2.5022,-2.5022,-2.5022,-2.5022,0,0,0,0,0,0,0,-2.5114,-2.5113,-2.5106,-2.5094,-2.5091,-2.508,-2.5077,-2.5083,-2.5058,-2.5061,-2.5058,-2.5056,-2.5037,-2.5035,-2.5034,-2.5044,-2.5022,-2.5022,-2.5022,-2.5022,-2.5073,-2.5075,0,0,0,0,0,0,-2.5118,-2.5114,-2.5106,-2.5105,-2.5098,-2.5081,-2.5078,-2.5078,-2.5058,-2.5053,-2.5057,-2.5054,-2.5036,-2.5034,-2.5033,-2.5061,-2.5022,-2.5022,-2.5022,-2.5072,-2.5074,-2.5075,0,0,0,0,0,0,-2.5119,-2.5118,-2.5107,-2.5108,-2.5106,-2.5082,-2.5083,-2.5078,-2.5076,-2.5054,-2.505,-2.506,-2.5034,-2.5033,-2.5043,-2.5059,-2.5022,-2.5022,-2.5071,-2.5073,-2.5074,-2.5117,0,0,0,0,0,0,-2.5119,-2.5118,-2.5128,-2.5109,-2.5106,-2.5118,-2.5084,-2.5079,-2.5077,-2.5073,-2.5056,-2.5052,-2.5033,-2.5043,-2.5044,-2.5059,-2.5022,-2.5069,-2.5072,-2.5074,-2.5114,-2.512,-2.5125,0,0,0,0,0,-2.5119,-2.5141,-2.5129,-2.5128,-2.5118,-2.5119,-2.5117,-2.5095,-2.5078,-2.5087,-2.5073,-2.5052,-2.5058,-2.5045,-2.5045,-2.506,-2.5068,-2.5071,-2.5074,-2.5111,-2.5119,-2.5125,0,0,0,0,0,0,-2.5163,-2.5138,-2.5124,-2.514,-2.5132,-2.5111,-2.5122,-2.5104,-2.5101,-2.5097,-2.507,-2.5067,-2.508,-2.5072,-2.5057,-2.5084,-2.506,-2.5063,-2.5088,-2.5095,-2.5101,-2.5102,-2.5023,0,0,0,0,0,-2.5175,-2.5177,-2.5156,-2.5172,-2.5169,-2.5147,-2.5146,-2.513,-2.512,-2.5117,-2.5103,-2.5095,-2.5094,-2.5095,-2.5093,-2.5113,-2.5108,-2.5124,-2.5129,-2.5134,-2.5136,-2.5145,-2.5151,-2.5084,-2.5084,-2.5084,0,0,-2.5198,-2.5185,-2.5189,-2.5181,-2.5172,-2.5175,-2.5144,-2.5149,-2.5151,-2.5118,-2.5126,-2.5116,-2.5105,-2.5119,-2.5125,-2.5112,-2.5154,-2.5138,-2.5142,-2.5141,-2.5148,-2.5155,-2.516,-2.5086,-2.5086,-2.5085,0,0,-2.5242,-2.5234,-2.5245,-2.5238,-2.5225,-2.521,-2.5213,-2.5196,-2.5187,-2.5196,-2.517,-2.5173,-2.5173,-2.5165,-2.5162,-2.5203,-2.5183,-2.5204,-2.5232,-2.5241,-2.5246,-2.5251,-2.5264,-2.5269,-2.5207,-2.5207,-2.5207,0,-2.5273,-2.5277,-2.5254,-2.526,-2.5257,-2.5227,-2.5238,-2.5232,-2.522,-2.5219,-2.5205,-2.5204,-2.5195,-2.5206,-2.5216,-2.5215,-2.5217,-2.5205,-2.5247,-2.5251,-2.5255,-2.5267,-2.5273,-2.5209,-2.5209,-2.5209,-2.5208,0,-2.5315,-2.5318,-2.5329,-2.5317,-2.5316,-2.5325,-2.5303,-2.5304,-2.5288,-2.5275,-2.5283,-2.5271,-2.5266,-2.5268,-2.5253,-2.5277,-2.5269,-2.5252,-2.5227,-2.5264,-2.5275,-2.528,-2.5213,-2.5212,-2.5211,-2.521,0,0,-2.5384,-2.536,-2.5364,-2.5358,-2.5342,-2.5344,-2.5352,-2.5347,-2.5347,-2.5341,-2.5345,-2.5347,-2.533,-2.5326,-2.531,-2.5318,-2.5349,-2.5299,-2.5298,-2.5307,-2.5373,-2.5385,-2.5391,-2.5337,-2.5338,-2.5338,-2.5374,0,-2.5424,-2.5434,-2.5414,-2.543,-2.5432,-2.5403,-2.541,-2.5401,-2.5389,-2.5389,-2.5375,-2.5376,-2.5355,-2.5352,-2.5358,-2.5344,-2.5362,-2.5341,-2.534,-2.534,-2.5341,-2.5397,-2.5409,-2.5443,-2.5378,-2.5379,-2.5379,0,-2.5471,-2.5465,-2.5481,-2.5463,-2.5463,-2.547,-2.5462,-2.5463,-2.5452,-2.5443,-2.5438,-2.5419,-2.5425,-2.5403,-2.541,-2.5396,-2.5395,-2.5388,-2.5388,-2.5386,-2.536,-2.5394,-2.5454,-2.5458,-2.5386,-2.5385,-2.5385,0,-2.5517,-2.5514,-2.5523,-2.5519,-2.5499,-2.5504,-2.5496,-2.5484,-2.5482,-2.5476,-2.5474,-2.547,-2.5467,-2.5463,-2.5444,-2.5429,-2.5453,-2.5429,-2.5444,-2.5444,-2.5448,-2.5448,-2.5507,-2.5451,-2.5451,-2.5451,-2.5451,0,-2.5562,-2.5572,-2.5543,-2.5549,-2.5559,-2.5536,-2.5547,-2.5536,-2.5526,-2.5528,-2.5504,-2.5507,-2.5482,-2.5481,-2.5466,-2.5473,-2.5473,-2.5465,-2.546,-2.5465,-2.5466,-2.5463,-2.5459,-2.5452,-2.5452,-2.5452,-2.5451,0,-2.5615,-2.5597,-2.5604,-2.5585,-2.558,-2.5588,-2.5572,-2.5576,-2.5562,-2.5565,-2.5565,-2.5543,-2.5542,-2.5522,-2.5517,-2.5507,-2.5519,-2.5511,-2.5522,-2.5519,-2.5534,-2.5533,-2.5591,-2.5597,-2.554,-2.554,-2.5541,0,-2.5644,-2.5651,-2.5633,-2.5632,-2.5625,-2.5625,-2.5623,-2.5601,-2.5599,-2.5587,-2.5592,-2.5588,-2.5584,-2.5583,-2.5567,-2.5562,-2.5553,-2.5574,-2.5552,-2.5557,-2.5551,-2.555,-2.5549,-2.5578,-2.5579,-2.5579,-2.558,0,-2.5696,-2.5687,-2.5684,-2.5678,-2.5676,-2.567,-2.5663,-2.5664,-2.5639,-2.5639,-2.5637,-2.5633,-2.5627,-2.5624,-2.5616,-2.5608,-2.5589,-2.5587,-2.559,-2.5594,-2.56,-2.5595,-2.5533,-2.5585,-2.5585,-2.5584,-2.5584,-2.5584,-2.5737,-2.5741,-2.5729,-2.5726,-2.5718,-2.5712,-2.5714,-2.5701,-2.5699,-2.5692,-2.5679,-2.5679,-2.5667,-2.5655,-2.5648,-2.5647,-2.5636,-2.5641,-2.5642,-2.5643,-2.5645,-2.5602,-2.5646,-2.5646,-2.5646,-2.5646,-2.5646,0,-2.5786,-2.5777,-2.5775,-2.5765,-2.5763,-2.5747,-2.5738,-2.5737,-2.5737,-2.5728,-2.5724,-2.5721,-2.5717,-2.5701,-2.5696,-2.5698,-2.5689,-2.5697,-2.5696,-2.5694,-2.5656,-2.5653,-2.5704,-2.5704,-2.5704,-2.5704,-2.5704,-2.5704,-2.5812,-2.5818,-2.5807,-2.5809,-2.5799,-2.5798,-2.5794,-2.5788,-2.578,-2.5778,-2.5775,-2.5764,-2.5752,-2.5745,-2.5741,-2.5736,-2.5735,-2.5745,-2.5737,-2.5702,-2.5696,-2.5691,-2.5688,-2.5745,-2.5745,-2.5774,-2.5775,-2.5775]},{"header":{"parameterUnit":"m.s-1","parameterCategory":1,"la1":30.2991,"la2":30.254,"lo1":-89.0895,"lo2":-89.0444,"dy":0.0017,"dx":0.0017,"nx":28,"ny":28,"refTime":"2025-01-26T09:00:00:Z","depth":0,"parameterNumber":3,"parameterNumberName":"V-component_of_WINDS"},"data":[0,0,0,0,0,0,0,0,0,0,0,0,0,0,0,0,0,0,0,0,0,0,0,0,0,0,0,0,0,0,0,0,0,0,0,0,0,0,0,0,0,0,0,0,0,0,0,0,0,0,0,0,0,0,0,0,0,0,0.386,0.3861,0,0.3874,0.3874,0.3874,0.3798,0.3795,0.3793,0.3791,0.3811,0.3813,0.3816,0,0,0,0,0,0,0,0,0,0,0,0,0,0.3777,0.3779,0.386,0.3861,0.3861,0.3874,0.3874,0.3874,0.3798,0.3795,0.3793,0.379,0.381,0.3813,0.3816,0,0,0,0,0,0,0,0,0,0,0,0,0,0.3805,0.378,0.386,0.3824,0.3821,0.3873,0.3874,0.3874,0.3799,0.3795,0.3792,0.3789,0.3809,0.3812,0.3816,0.3906,0,0,0.3828,0.383,0,0,0,0,0,0,0,0,0.3803,0.3808,0.3829,0.3827,0.3823,0.383,0.3851,0.3885,0.3799,0.3807,0.3791,0.3787,0.382,0.3823,0.3833,0.3907,0.3907,0.3828,0.3831,0.3832,0.3833,0,0,0,0,0,0,0,0.3801,0.3807,0.3866,0.383,0.3826,0.381,0.381,0.3857,0.3832,0.3806,0.3801,0.3803,0.3818,0.3829,0.3833,0.3908,0.3828,0.3832,0.3834,0.3835,0.4061,0.4064,0,0,0,0,0,0,0.3803,0.3806,0.3865,0.3866,0.3805,0.3814,0.3814,0.3832,0.3831,0.3828,0.3806,0.38,0.3824,0.3828,0.3833,0.3941,0.3832,0.3836,0.3838,0.4057,0.4062,0.4066,0,0,0,0,0,0,0.3802,0.3809,0.3865,0.3834,0.384,0.3819,0.3839,0.3834,0.3845,0.3831,0.3827,0.3822,0.3822,0.3828,0.3889,0.3941,0.3838,0.3841,0.4053,0.4059,0.4064,0.4156,0,0,0,0,0,0,0.38,0.3809,0.3841,0.3836,0.3842,0.3918,0.3842,0.3836,0.3851,0.3843,0.3845,0.3842,0.382,0.3884,0.3893,0.3944,0.3844,0.4048,0.4055,0.4062,0.4149,0.4164,0.4178,0,0,0,0,0,0.3797,0.3867,0.3843,0.3851,0.3881,0.3921,0.3925,0.3897,0.3855,0.3889,0.3881,0.3842,0.3933,0.389,0.39,0.3954,0.4045,0.4053,0.4061,0.4142,0.4161,0.4178,0,0,0,0,0,0,0.388,0.3865,0.3839,0.3908,0.3917,0.3908,0.3949,0.3917,0.3939,0.393,0.3896,0.3897,0.3966,0.3965,0.3918,0.4043,0.3982,0.3993,0.404,0.4058,0.4073,0.4073,0.3847,0,0,0,0,0,0.3906,0.3938,0.3924,0.3987,0.3992,0.3971,0.3987,0.3964,0.3972,0.3976,0.3972,0.3983,0.4015,0.4036,0.4064,0.4148,0.415,0.419,0.4204,0.4216,0.4227,0.4276,0.4295,0.4093,0.4093,0.4093,0,0,0.3961,0.3957,0.3979,0.4004,0.4007,0.4044,0.3974,0.4015,0.4043,0.3982,0.4041,0.4039,0.4049,0.4123,0.4155,0.4125,0.4283,0.4227,0.4237,0.4241,0.4286,0.4306,0.4323,0.4098,0.4097,0.4097,0,0,0.4081,0.4079,0.4133,0.4138,0.4145,0.413,0.4143,0.414,0.4137,0.4194,0.4151,0.4185,0.4238,0.4249,0.4261,0.4388,0.4355,0.4398,0.4476,0.4524,0.454,0.4554,0.4603,0.4621,0.4408,0.4408,0.4409,0,0.4149,0.42,0.4165,0.421,0.4224,0.417,0.4227,0.4234,0.4251,0.4263,0.4228,0.4297,0.43,0.4378,0.4409,0.4419,0.4437,0.4399,0.454,0.4554,0.4566,0.4613,0.4631,0.4414,0.4413,0.4413,0.4412,0,0.4285,0.4322,0.4365,0.4382,0.44,0.4451,0.4427,0.4451,0.4427,0.4417,0.4479,0.4481,0.451,0.4526,0.4504,0.4603,0.4584,0.4545,0.4484,0.4592,0.4635,0.4653,0.4422,0.442,0.4418,0.4417,0,0,0.4457,0.4455,0.4472,0.448,0.4484,0.4514,0.4564,0.4591,0.4614,0.4627,0.4671,0.4719,0.4684,0.4698,0.4677,0.4719,0.4825,0.4675,0.4675,0.4706,0.4939,0.4971,0.4992,0.4802,0.4805,0.4807,0.494,0,0.4577,0.466,0.4632,0.4718,0.4754,0.4705,0.4749,0.4758,0.4751,0.4783,0.4775,0.4812,0.476,0.4769,0.4808,0.4803,0.4872,0.4793,0.4847,0.4849,0.4848,0.5014,0.5047,0.5172,0.4956,0.4959,0.4961,0,0.4727,0.4747,0.4836,0.4838,0.4852,0.4892,0.4917,0.4946,0.4957,0.495,0.4967,0.4938,0.4991,0.4928,0.5003,0.495,0.4971,0.4972,0.4976,0.4983,0.4914,0.5029,0.521,0.5231,0.4987,0.4985,0.4983,0,0.4849,0.4897,0.4958,0.4966,0.4968,0.4998,0.5001,0.5008,0.5028,0.5051,0.5064,0.5093,0.511,0.5134,0.5116,0.5071,0.5196,0.513,0.5194,0.5195,0.5225,0.5224,0.5416,0.5232,0.5232,0.5232,0.5231,0,0.4987,0.5045,0.5013,0.5051,0.5116,0.5084,0.515,0.5147,0.5155,0.5194,0.5153,0.5191,0.5162,0.5199,0.5184,0.5252,0.5258,0.5257,0.5253,0.5262,0.5263,0.5278,0.527,0.5237,0.5236,0.5235,0.5234,0,0.5135,0.5115,0.5179,0.5176,0.5177,0.5225,0.5224,0.5261,0.5251,0.5301,0.5312,0.5297,0.5339,0.5322,0.5365,0.5356,0.5444,0.5426,0.544,0.5437,0.5503,0.5499,0.5714,0.5743,0.5537,0.5539,0.5541,0,0.5226,0.5269,0.5271,0.5294,0.5299,0.5336,0.5356,0.5327,0.535,0.5368,0.5404,0.5442,0.5471,0.554,0.5536,0.5571,0.5557,0.563,0.5562,0.5572,0.5563,0.5562,0.5569,0.5645,0.5647,0.5649,0.565,0,0.5391,0.538,0.5409,0.5436,0.5461,0.5481,0.5498,0.552,0.5493,0.5521,0.5563,0.5585,0.5631,0.5671,0.5702,0.5708,0.5677,0.5671,0.5689,0.5701,0.5709,0.571,0.5481,0.5667,0.5666,0.5664,0.5663,0.5663,0.5516,0.5554,0.5562,0.5597,0.5607,0.5625,0.566,0.5655,0.5688,0.5722,0.5704,0.5754,0.5768,0.5807,0.5818,0.5859,0.583,0.5855,0.5862,0.5869,0.588,0.5699,0.5864,0.5863,0.5863,0.5862,0.5862,0,0.5683,0.5686,0.5718,0.5744,0.5773,0.5737,0.5756,0.5783,0.5827,0.5841,0.5871,0.5921,0.596,0.5959,0.5997,0.603,0.6017,0.6041,0.604,0.6044,0.59,0.5883,0.6051,0.6051,0.6051,0.6051,0.6051,0.6051,0.5773,0.5837,0.5827,0.5897,0.59,0.5947,0.5961,0.5979,0.5991,0.6048,0.608,0.6078,0.6088,0.6126,0.6163,0.6161,0.6179,0.621,0.6204,0.6071,0.6053,0.6035,0.6019,0.6213,0.6213,0.6344,0.6346,0.6346]}]]